TimeEST,TemperatureF,Dew PointF,Humidity,Sea Level PressureIn,VisibilityMPH,Wind Direction,Wind SpeedMPH,Gust SpeedMPH,PrecipitationIn,Events,Conditions,WindDirDegrees,DateUTC
12:53 AM,35.1,27.0,72,30.37,10.0,West,9.2,-,N/A,,Overcast,260,2012-11-13 05:53:00
1:53 AM,35.1,26.1,70,30.36,10.0,West,13.8,20.7,N/A,,Overcast,260,2012-11-13 06:53:00
2:28 AM,35.6,26.6,70,30.35,10.0,West,12.7,21.9,N/A,,Overcast,260,2012-11-13 07:28:00
2:40 AM,33.8,24.8,70,30.35,10.0,West,10.4,20.7,N/A,,Overcast,260,2012-11-13 07:40:00
2:53 AM,34.0,24.1,67,30.38,10.0,West,9.2,18.4,N/A,,Overcast,270,2012-11-13 07:53:00
3:53 AM,32.0,21.9,66,30.39,10.0,West,9.2,-,N/A,,Scattered Clouds,260,2012-11-13 08:53:00
4:53 AM,30.9,21.9,69,30.40,10.0,West,9.2,-,N/A,,Clear,270,2012-11-13 09:53:00
5:53 AM,30.0,23.0,75,30.42,10.0,West,5.8,-,N/A,,Clear,260,2012-11-13 10:53:00
6:53 AM,30.0,24.1,79,30.44,10.0,SW,5.8,-,N/A,,Clear,230,2012-11-13 11:53:00
7:53 AM,30.0,25.0,82,30.47,10.0,West,4.6,-,N/A,,Clear,270,2012-11-13 12:53:00
8:53 AM,32.0,25.0,75,30.49,10.0,WSW,5.8,-,N/A,,Clear,240,2012-11-13 13:53:00
9:53 AM,35.1,25.0,67,30.49,10.0,Variable,6.9,-,N/A,,Clear,0,2012-11-13 14:53:00
10:21 AM,33.8,24.8,70,30.45,10.0,NW,9.2,-,N/A,,Mostly Cloudy,310,2012-11-13 15:21:00
10:34 AM,35.6,23.0,60,30.45,10.0,WNW,6.9,-,N/A,,Mostly Cloudy,300,2012-11-13 15:34:00
10:45 AM,35.6,23.0,60,30.45,10.0,WNW,8.1,-,N/A,,Mostly Cloudy,300,2012-11-13 15:45:00
10:53 AM,34.0,23.0,64,30.50,10.0,NW,6.9,-,N/A,,Mostly Cloudy,310,2012-11-13 15:53:00
11:53 AM,37.0,23.0,57,30.48,10.0,Variable,4.6,-,N/A,,Overcast,0,2012-11-13 16:53:00
12:53 PM,37.0,23.0,57,30.46,10.0,West,9.2,-,N/A,,Overcast,280,2012-11-13 17:53:00
1:53 PM,37.0,21.9,54,30.46,10.0,NW,8.1,-,N/A,,Overcast,320,2012-11-13 18:53:00
2:53 PM,36.0,21.9,57,30.47,10.0,NW,4.6,-,N/A,,Overcast,320,2012-11-13 19:53:00
3:53 PM,36.0,21.0,55,30.48,10.0,NNW,6.9,-,N/A,,Overcast,340,2012-11-13 20:53:00
4:53 PM,36.0,19.9,52,30.49,10.0,WNW,4.6,-,N/A,,Overcast,290,2012-11-13 21:53:00
5:53 PM,35.1,19.0,52,30.50,10.0,WNW,4.6,-,N/A,,Overcast,300,2012-11-13 22:53:00
6:53 PM,35.1,19.9,54,30.51,10.0,Calm,Calm,-,N/A,,Overcast,0,2012-11-13 23:53:00
7:53 PM,34.0,21.0,59,30.52,10.0,NNW,4.6,-,N/A,,Overcast,340,2012-11-14 00:53:00
8:53 PM,34.0,21.0,59,30.54,10.0,Calm,Calm,-,N/A,,Overcast,0,2012-11-14 01:53:00
9:53 PM,33.1,23.0,66,30.55,10.0,Calm,Calm,-,N/A,,Overcast,0,2012-11-14 02:53:00
10:53 PM,32.0,21.9,66,30.56,10.0,Calm,Calm,-,N/A,,Partly Cloudy,0,2012-11-14 03:53:00
11:53 PM,32.0,21.9,66,30.55,10.0,NE,4.6,-,N/A,,Clear,40,2012-11-14 04:53:00